Location: Cahas Mountain Overlook
(37.0833°N, 80.1000°W)
Time: 18:49:44
(UTC-04:00)

Explorer 7 - Pass Details

Date: 13 February 2026
Orbit: 430 x 541 km, 50.2° (Epoch: 13 March)

Event Time Altitude Azimuth Distance (km) Brightness Sun altitude
Rises 21:34:14 0° 315° (NW) 2,585 - -43.2°
Reaches altitude 10° 21:36:49 10° 332° (NNW) 1,724 - -43.7°
Maximum altitude 21:39:49 20° 22° (NNE) 1,222 - -44.3°
Drops below altitude 10° 21:42:52 10° 72° (ENE) 1,768 - -44.8°
Sets 21:45:34 0° 89° (E) 2,673 - -45.3°
